OPS 4682 DEB, 38421

Orbit data source: Space-Track

OPS 4682 DEB, 38421 is space debris in LEO originally from a launch on Sat, 03 Apr 1965 UTC launched from the Air Force Western Test Range (AFWTR). Debris objects in space refer to the collection of defunct objects orbiting the Earth. Examples of debris include non-operational satellites, rocket bodies, and fragments generated from explosions, collisions, or faulty payload assembly.

Loading next visibility...
Identifier
38421, 1965-027EA
Orbit
LEO
Country
Flag of USUS
Related business
Manufacturer
Unknown
Mission
Spacecraft
Bus & Motor
Unknown
Mass
Unknown
Launch date (UTC)
1965-04-03 (61 years ago)
Launch vehicle
Unknown
Launch site
Air Force Western Test Range (AFWTR)
Object type
Payload
Rocket body
Debris
Shape & HBR
Unknown shape, 0.1 m
Radar Cross Section
Small (<0.1 m²)

Expand to show TLE details & history
Last TLE update: 3 days ago

TLE from 3 days ago
0 OPS 4682 DEB
1 38421U 65027EA  26101.96691616 -.00000317  00000-0 -93680-3 0  9994
2 38421  90.2630   7.4076 0039089 104.4017 256.1454 13.09750836659953
Epoch: 2026-04-11T23:12Z
TLE epoch observation values (Epoch: 2026-04-11T23:12:21.556Z)
Latitude
-0.00001°
Longitude
179.13915°
Altitude
1,234.244 km
Speed
7.234 km/s
True Right ascension
00h 29m 37s
True Declination
0° 00' 00"
Sunlit
Object was in daylight at epoch
Visualization orbit readout
Latitude
Unknown
Longitude
Unknown
Altitude
Unknown
Speed
Unknown
Apparent Right ascension
Unknown
Apparent Declination
Unknown
Sunlit
N/A
Visualization observer readout
Local Sidereal Time
19:58:36
Azimuth
Unknown
Elevation
Unknown
Doppler factor
Unknown
Orbital elements
Apogee altitude
1,250.937 km
Perigee altitude
1,191.527 km
Semi-major axis
7,599.369 km
Eccentricity
0.00391
Inclination
90.263°
RAAN
7.4076°
Arg. of periapsis
104.4017°
True anomaly
255.71102°
Mean anomaly
256.1454°
Eccentric anomaly
255.92816°
Mean motion
3.27625 °/min
Orbital period
109.88 mins
BSTAR
-0.0009368
Loading maneuver chart data...
Computing Atmospheric mass density...
Loading historical data...
Loading historical data...
Loading historical data...
Loading historical data...
Loading historical data...
Loading historical data...
Loading historical data...

Documentation

Showing up to 5 results
|